Weather Roundup
Issued by NWS Chicago, IL

Home | Current Version | Previous Version | Text Only | Print | Product List | Glossary Off
Versions: 1 2 3 4 5 6 7 8 9 10 11 12 13 14 15 16 17 18 19 20 21 22 23 24 25 26 27 28 29 30 31 32 33 34 35 36 37 38 39 40 41 42 43 44 45 46 47 48 49 50

000
NZUS59 KLOT 072212
HRRLOT

CHICAGO AREA WEATHER ROUNDUP
NATIONAL WEATHER SERVICE CHICAGO/ROMEOVILLE IL
400 PM CST WED DEC 07 2016

NOTE: "FAIR" INDICATES FEW OR NO CLOUDS BELOW 12,000 FEET WITH NO
SIGNIFICANT WEATHER AND/OR OBSTRUCTIONS TO VISIBILITY.

* THESE STATIONS ARE NOT UNDER NWS QUALITY CONTROL. THEY ALSO MAY NOT
  REPORT WEATHER SUCH AS PRECIPITATION OR FOG.

ILZ005-006-012>014-019>023-072300-
NORTHEAST ILLINOIS

CITY           SKY/WX    TMP DP  RH WIND       PRES   REMARKS
OHARE          MOCLDY    24  17  74 W17G26    30.10R WCI  11
MIDWAY         MOCLDY    27  17  66 W16       30.12R WCI  15
AURORA         CLOUDY    25  18  74 SW12      30.13R WCI  14
LANSING*       CLOUDY    28  23  80 W15G21    30.12S WCI  17
JOLIET*        CLOUDY    28  22  75 W10G17    30.15R WCI  19
WAUKEGAN       CLOUDY    26  18  71 SW12G20   30.06R WCI  16
DUPAGE AIRPORT PTCLDY    24  16  71 W15       30.11R WCI  11
WHEELING       PTCLDY    26  17  68 W13       30.10R WCI  15
KANKAKEE*      PTCLDY    30  22  72 W14G20    30.16R WCI  19
MORRIS*        CLOUDY    28  22  79 W14       30.14S WCI  17
LEWIS AIRPORT* PTCLDY    26  22  86 W14G21    30.13R WCI  14
NORTHERLY ISL    N/A     28  19  69 W16         N/A  WCI  16
$$

WIZ051-052-058>065-066-070>072-072300-
SOUTHEAST WISCONSIN

CITY           SKY/WX    TMP DP  RH WIND       PRES   REMARKS
MILWAUKEE      MOCLDY    26  15  63 W14G24    30.03R WCI  14
KENOSHA*       CLOUDY    25  17  72 W21G30    30.05R WCI  11
RACINE*        PTCLDY    25  15  66 W9        30.06R WCI  15
BURLINGTON     CLOUDY    23  16  74 W9G21     30.06R WCI  13
WAUKESHA       PTCLDY    21  14  73 SW14      30.03R WCI   8
WEST BEND      PTCLDY    23  16  74 W10G21    30.00R WCI  12
$$

INZ001>003-010>013-019-020-072300-
NORTHWEST INDIANA

CITY           SKY/WX    TMP DP  RH WIND       PRES   REMARKS
GARY*          CLOUDY    30  21  69 W15G29    30.12R WCI  19
MICHIGAN CITY* NOT AVBL
RENSSELAER*    NOT AVBL
VALPARAISO     MOCLDY    30  21  69 W17       30.11R WCI  18
$$

LMZ740>746-072300-
SOUTHERN LAKE MICHIGAN

STATION/POSITION TIME  SKY/WX   TEMP WIND        PRES    VSBY
                                AIR  DIR/SP/G
                 (UTC)          (F)  (DEG/KT/KT) (MB)    (MI)
HARRISON CRIB    2140            28  230/ 18/ 21   N/A
BURNHAM HARBOR   2200            27  230/  9/ 16   N/A
CALUMET HARBOR   2148            27  220/ 12/ 18 1018.9R
BURNS HARBOR     2140            31  240/ 14/ 20 1019.6S
MICHIGAN CITY    2140            30  190/ 16/ 18   N/A
$$

ABBREVIATIONS USED IN REMARKS
   TC - TEMPERATURE IN CELSIUS
  WCI - WIND CHILL INDEX
   HX - HEAT INDEX
  VSB - VISIBILITY
$$




USA.gov is the U.S. government's official web portal to all federal, state and local government web resources and services.